User: anonymous   Login
Location: Julian California
(33.0790°N, 116.6010°W)
Time: 10:56:48
(UTC-07:00)
Language:

Cosmos 2058 Rocket - Orbit

View from above orbital plane
View from above orbital plane
View from above satellite
View from above satellite

Ground track
Ground track

The orbit data is extracted from the following two-line orbital elements,

1 20466U 90010B   19111.97188808 +.00000044 +00000-0 +26067-5 0  9994
2 20466 082.5005 102.1388 0018989 286.7408 073.1722 14.81352526556187
Epoch (UTC): 21 April 2019 23:19:31
Eccentricity: 0.0018989
inclination: 82.5005°
perigee height: 612 km
apogee height: 638 km
right ascension of ascending node: 102.1388°
argument of perigee: 286.7408°
revolutions per day: 14.81352526
mean anomaly at epoch: 73.1722°
orbit number at epoch: 55618

The dashed part of the orbit path shows where the satellite is in the earth's shadow,  

DLR